Weather History for KDSV - April, 2014

Change the Weather History Date:

Saturday, April 19, 2014

  Actual Average Record
Temperature  
Mean Temperature 44 °F -  
Max Temperature 55 °F 58 °F 89 °F (1976)
Min Temperature 33 °F 36 °F 21 °F (2001)
Degree Days  
Heating Degree Days 22    
Moisture  
Dew Point 32 °F    
Average Humidity 63    
Maximum Humidity 89    
Minimum Humidity 37    
Precipitation  
Precipitation 0.00 in - - ()
Sea Level Pressure  
Sea Level Pressure 30.41 in    
Wind  
Wind Speed 6 mph (NW)    
Max Wind Speed 15 mph    
Max Gust Speed 25 mph    
Visibility 9 miles    
Events      
Averages and records for this station are not official NWS values.
T = Trace of Precipitation, MM = Missing Value Source: NWS Daily Summary

Daily Weather History Graph

Daily Weather History Graph

Search for Another Location

Airport or City:

Trip Planner

Search our weather history database for the weather conditions in past years. The results will help you decide how hot, cold, wet, or windy it might be!

Date:

Astronomy

Apr. 19, 2014 Rise Set
Actual Time 6:23 AM EDT 7:57 PM EDT
Civil Twilight 5:53 AM EDT 8:27 PM EDT
Nautical Twilight 5:17 AM EDT 9:02 PM EDT
Astronomical Twilight 4:39 AM EDT 9:41 PM EDT
Moon No Moon Rise 9:36 AM EDT (4/19)
Length of Visible Light 14h 33m
Length of Day
13h 34m
Waning Gibbous, 79% of the Moon is Illuminated
Apr 19
Waning Gibbous
Apr 22
Last Quarter
Apr 29
New
May 6
First Quarter
May 14
Full

Hourly Weather History & Observations

Time (EDT) Temp. Windchill Dew Point Humidity Pressure Visibility Wind Dir Wind Speed Gust Speed Precip Events Conditions
12:54 AM 45.0 °F - 39.9 °F 82% 30.32 in 10.0 mi Calm Calm - N/A   Mostly Cloudy
1:54 AM 45.0 °F 42.6 °F 39.0 °F 80% 30.32 in 8.0 mi West 4.6 mph - N/A   Partly Cloudy
2:54 AM 42.1 °F 36.1 °F 36.0 °F 79% 30.33 in 7.0 mi NW 10.4 mph - N/A   Clear
3:54 AM 39.0 °F - 34.0 °F 82% 30.34 in 7.0 mi Calm Calm - N/A   Clear
4:54 AM 37.0 °F - 33.1 °F 86% 30.35 in 7.0 mi Calm Calm - N/A   Partly Cloudy
5:54 AM 35.1 °F - 32.0 °F 89% 30.37 in 6.0 mi Calm Calm - N/A   Clear
6:54 AM 33.1 °F - 30.0 °F 89% 30.40 in 4.0 mi Calm Calm - N/A   Clear
7:54 AM 37.0 °F 31.6 °F 33.1 °F 86% 30.42 in 5.0 mi NNW 6.9 mph - N/A   Clear
8:54 AM 41.0 °F 33.9 °F 32.0 °F 70% 30.43 in 10.0 mi NW 12.7 mph - N/A   Clear
9:54 AM 44.1 °F 38.6 °F 33.1 °F 65% 30.45 in 10.0 mi NW 10.4 mph - N/A   Partly Cloudy
10:44 AM 45.0 °F 39.3 °F 33.1 °F 63% 30.42 in 10.0 mi NW 11.5 mph - N/A   Mostly Cloudy
10:52 AM 46.4 °F 41.1 °F 33.8 °F 62% 30.42 in 10.0 mi NW 11.5 mph - N/A   Scattered Clouds
10:54 AM 46.9 °F - 34.0 °F 61% 30.45 in 10.0 mi NNW 11.5 mph - N/A   Scattered Clouds
11:02 AM 46.9 °F - 34.0 °F 61% 30.42 in 10.0 mi NNW 12.7 mph - N/A   Mostly Cloudy
11:18 AM 48.0 °F - 34.0 °F 58% 30.42 in 10.0 mi NW 10.4 mph - N/A   Mostly Cloudy
11:54 AM 48.0 °F - 33.1 °F 56% 30.46 in 10.0 mi NW 11.5 mph - N/A   Mostly Cloudy
12:54 PM 50.0 °F - 33.1 °F 52% 30.45 in 10.0 mi WNW 11.5 mph - N/A   Scattered Clouds
1:54 PM 51.1 °F - 32.0 °F 48% 30.44 in 10.0 mi NW 13.8 mph - N/A   Clear
2:54 PM 52.0 °F - 32.0 °F 47% 30.44 in 10.0 mi NNW 15.0 mph 25.3 mph N/A   Clear
3:54 PM 54.0 °F - 32.0 °F 43% 30.43 in 10.0 mi NW 10.4 mph 17.3 mph N/A   Clear
4:54 PM 54.0 °F - 28.9 °F 38% 30.42 in 10.0 mi NW 12.7 mph - N/A   Clear
5:54 PM 53.1 °F - 27.0 °F 37% 30.43 in 10.0 mi NW 12.7 mph - N/A   Clear
6:54 PM 51.1 °F - 27.0 °F 39% 30.43 in 10.0 mi NW 15.0 mph - N/A   Clear
7:54 PM 46.9 °F - 27.0 °F 46% 30.43 in 10.0 mi North 6.9 mph - N/A   Clear
8:54 PM 45.0 °F - 27.0 °F 49% 30.44 in 10.0 mi Calm Calm - N/A   Clear
9:54 PM 42.1 °F 40.2 °F 28.0 °F 58% 30.46 in 10.0 mi South 3.5 mph - N/A   Clear
10:54 PM 37.9 °F 35.5 °F 28.0 °F 68% 30.47 in 10.0 mi South 3.5 mph - N/A   Clear
11:54 PM 36.0 °F 31.1 °F 27.0 °F 70% 30.46 in 10.0 mi SSE 5.8 mph - N/A   Clear